Waarnemingen

Advertentie
Mijn weer
Startbyn, Zweden (2181): temperatuur & dauwpunt: 16.10.2017 17:00:00 - 22.10.2017 17:00:00 (CEST)Startbyn, Zweden (2181): windsnelheid & windstoten: 16.10.2017 17:00:00 - 22.10.2017 17:00:00 (CEST)Startbyn, Zweden (2181): windrichting: 16.10.2017 17:00:00 - 22.10.2017 17:00:00 (CEST)Startbyn, Zweden (2181): luchtdruk: 16.10.2017 17:00:00 - 22.10.2017 17:00:00 (CEST)Startbyn, Zweden (2181): zicht: 16.10.2017 17:00:00 - 22.10.2017 17:00:00 (CEST)Startbyn, Zweden (2181): neerslag: 16.10.2017 17:00:00 - 22.10.2017 17:00:00 (CEST)
Datum & Tijd tt [°C] td [°C] ff [km/u] ff [kn] fx [km/u] fx [kn] dd ppp [hPa] vv [km] rr [mm]
22.10.2017 17:00:00 - - - - - - - - - -
22.10.2017 16:00:00 0,6 -0,7 3 2 8 5 NNW 1023,7 50 0,0
22.10.2017 15:00:00 0,6 -0,7 4 2 11 6 NNW 1023,2 50 0,0
22.10.2017 14:00:00 0,4 -0,9 5 3 11 6 NNW 1023,1 50 0,0
22.10.2017 13:00:00 -0,2 -1,5 5 3 11 6 NNW 1022,7 50 0,0
22.10.2017 12:00:00 -0,9 -2,3 6 3 14 7 NNW 1022,5 50 0,0
22.10.2017 11:00:00 -1,4 -2,2 2 1 5 3 NW 1022,1 50 0,0
22.10.2017 10:00:00 -2,4 -3,1 2 1 5 3 NNW 1022,0 50 0,0
22.10.2017 09:00:00 -3,9 -4,6 0 0 3 2 N 1021,5 50 0,0
22.10.2017 08:00:00 -3,5 -4,2 0 0 4 2 N 1021,2 50 0,0
22.10.2017 07:00:00 -3,9 -4,6 0 0 2 1 N 1021,2 50 0,0
22.10.2017 06:00:00 -4,2 -5,0 0 0 3 1 N 1021,2 50 0,0
22.10.2017 05:00:00 -4,9 -5,7 0 0 3 2 N 1021,1 50 0,0
22.10.2017 04:00:00 -6,6 -7,5 0 0 3 2 N 1021,2 50 0,0
22.10.2017 03:00:00 -7,7 -8,6 0 0 2 1 N 1021,1 50 0,0
22.10.2017 02:00:00 -7,2 -8,1 0 0 4 2 N 1021,3 50 0,0
22.10.2017 01:00:00 -7,1 -8,0 0 0 2 1 N 1021,3 50 0,0
22.10.2017 00:00:00 -6,5 -7,3 0 0 2 1 N 1021,6 50 0,0
21.10.2017 23:00:00 -6,1 -6,9 0 0 3 2 N 1021,5 50 0,0
21.10.2017 22:00:00 -6,0 -6,8 0 0 2 1 N 1021,4 50 0,0
21.10.2017 21:00:00 -5,8 -6,6 0 0 3 2 N 1021,4 50 0,0
21.10.2017 20:00:00 -5,0 -5,7 0 0 1 1 N 1021,7 50 0,0
21.10.2017 19:00:00 -4,4 -5,1 0 0 3 1 N 1021,7 35 0,0
21.10.2017 18:00:00 -4,0 -5,0 0 0 3 2 N 1021,6 50 0,0
21.10.2017 17:00:00 -2,5 -3,9 0 0 2 1 N 1021,8 50 0,0
21.10.2017 16:00:00 -0,6 -2,8 0 0 3 1 N 1022,0 50 0,0
21.10.2017 15:00:00 0,5 -3,1 0 0 5 3 N 1022,1 50 0,0
21.10.2017 14:00:00 -0,1 -2,5 3 1 5 3 NNW 1022,3 50 0,0
21.10.2017 13:00:00 -0,5 -2,7 2 1 4 2 NW 1022,7 50 0,0
21.10.2017 12:00:00 -1,4 -3,0 0 0 6 3 N 1023,0 50 0,0
21.10.2017 11:00:00 -2,2 -3,2 5 3 9 5 W 1023,3 50 0,0
21.10.2017 10:00:00 -2,7 -3,4 0 0 4 2 N 1023,5 50 0,0
21.10.2017 09:00:00 -6,0 -6,8 0 0 6 3 N 1023,6 50 0,0
21.10.2017 08:00:00 -6,3 -7,1 3 2 6 4 WZW 1023,6 32 0,0
21.10.2017 07:00:00 -6,6 -7,5 2 1 6 3 ZZW 1023,7 50 0,0
21.10.2017 06:00:00 -5,5 -6,3 3 2 7 4 ZO 1024,2 50 0,0
21.10.2017 05:00:00 -5,3 -6,1 3 2 9 5 Z 1024,4 50 0,0
21.10.2017 04:00:00 -5,0 -5,7 5 3 9 5 Z 1025,0 50 0,0
21.10.2017 03:00:00 -5,4 -6,1 4 2 8 4 Z 1025,3 50 0,0
21.10.2017 02:00:00 -5,3 -6,0 0 0 7 4 N 1025,7 50 0,0
21.10.2017 01:00:00 -6,2 -7,0 4 2 7 4 Z 1025,7 50 0,0
21.10.2017 00:00:00 -4,9 -5,6 2 1 5 3 O 1026,3 50 0,0
20.10.2017 23:00:00 -4,7 -5,4 3 2 7 4 WZW 1026,2 50 0,0
20.10.2017 22:00:00 -5,2 -5,8 3 1 5 3 ZO 1026,4 50 0,0
20.10.2017 21:00:00 -4,5 -5,2 0 0 3 2 N 1026,7 50 0,0
20.10.2017 20:00:00 -4,2 -4,9 0 0 3 1 N 1026,7 50 -
20.10.2017 19:00:00 -3,0 -3,7 0 0 4 2 N 1026,5 50 -
20.10.2017 18:00:00 -2,7 -3,7 0 0 3 1 N 1026,4 50 -
20.10.2017 17:00:00 -1,5 -2,8 0 0 6 3 N 1026,3 50 -
20.10.2017 16:00:00 0,6 -2,0 4 2 8 4 NW 1026,3 50 -
20.10.2017 15:00:00 1,2 -1,9 4 2 15 8 NNW 1026,2 50 -
20.10.2017 14:00:00 1,9 -1,5 0 0 13 7 N 1025,9 50 -
20.10.2017 13:00:00 2,2 -1,2 6 3 14 8 N 1025,8 50 -
20.10.2017 12:00:00 1,8 -0,1 5 3 - - NNW 1025,7 50 -
20.10.2017 11:00:00 1,1 -0,2 5 3 16 9 N 1025,3 50 0,0
20.10.2017 10:00:00 0,9 0,0 5 3 12 7 NNW 1024,8 50 0,0
20.10.2017 09:00:00 0,7 0,0 6 3 15 8 N 1023,9 14 0,0
20.10.2017 08:00:00 0,7 0,1 5 3 11 6 NNW 1023,1 38 0,1
20.10.2017 07:00:00 0,9 0,3 5 3 16 9 NNW 1022,7 15 0,0
20.10.2017 06:00:00 0,9 0,5 8 4 17 9 NNW 1021,7 50 0,0
20.10.2017 05:00:00 1,3 0,9 9 5 19 10 N 1021,1 15 0,0
20.10.2017 04:00:00 1,4 1,1 8 4 15 8 N 1020,8 15 0,0
20.10.2017 03:00:00 1,2 0,9 6 3 11 6 NNW 1020,2 15 0,0
20.10.2017 02:00:00 1,1 0,8 6 4 11 6 NW 1019,7 6 0,0
20.10.2017 01:00:00 0,9 0,6 0 0 3 2 N 1019,4 46 0,0
20.10.2017 00:00:00 1,2 0,8 0 0 4 2 N 1019,2 43 0,1
19.10.2017 23:00:00 1,2 0,8 2 1 9 5 Z 1019,1 4,2 0,0
19.10.2017 22:00:00 1,7 1,3 5 3 12 6 ZZW 1019,0 29 0,0
19.10.2017 21:00:00 2,1 1,7 5 3 16 9 Z 1018,7 50 0,0
19.10.2017 20:00:00 0,9 0,5 3 1 5 3 ZZO 1018,5 32 0,0
19.10.2017 19:00:00 0,9 0,2 0 0 7 4 N 1018,3 50 0,0
19.10.2017 18:00:00 2,7 1,8 4 2 7 4 Z 1018,2 50 0,0
19.10.2017 17:00:00 2,8 1,9 3 1 6 3 ZZO 1018,3 50 0,1
19.10.2017 16:00:00 3,1 1,9 3 2 6 3 ZZW 1018,1 50 0,0
19.10.2017 15:00:00 3,0 1,7 0 0 8 5 N 1017,8 50 0,0
19.10.2017 14:00:00 3,3 2,1 0 0 8 4 N 1017,5 50 0,0
19.10.2017 13:00:00 3,0 2,0 0 0 7 4 N 1017,2 50 0,0
19.10.2017 12:00:00 2,9 2,0 3 1 9 5 NNW 1016,7 50 0,0
19.10.2017 11:00:00 2,6 1,9 5 3 11 6 NW 1016,5 50 0,0
19.10.2017 10:00:00 2,3 1,7 5 3 11 6 NNW 1015,8 44 0,0
19.10.2017 09:00:00 1,8 1,2 4 2 10 6 NNW 1015,1 26 0,0
19.10.2017 08:00:00 1,8 1,1 5 3 11 6 NW 1014,2 41 0,0
19.10.2017 07:00:00 2,0 1,1 5 3 13 7 NNW 1013,6 50 0,0
19.10.2017 06:00:00 2,1 1,1 6 3 13 7 NNW 1012,9 50 0,0
19.10.2017 05:00:00 1,8 0,9 5 3 12 6 NNW 1012,3 47 0,1
19.10.2017 04:00:00 2,0 1,0 6 3 13 7 NNW 1011,7 50 0,0
19.10.2017 03:00:00 1,3 0,3 4 2 16 8 WNW 1011,0 50 0,0
19.10.2017 02:00:00 1,3 0,3 10 5 16 9 NW 1010,5 50 0,0
19.10.2017 01:00:00 1,1 -0,2 6 3 13 7 NW 1009,9 50 0,0
19.10.2017 00:00:00 0,9 -0,4 6 4 18 10 NNW 1009,2 50 0,0
18.10.2017 23:00:00 0,3 -0,7 9 5 19 11 NW 1008,5 50 0,0
18.10.2017 22:00:00 0,0 -1,0 9 5 22 12 NW 1007,9 50 0,0
18.10.2017 21:00:00 -0,5 -1,3 3 2 18 10 NNW 1007,3 50 0,0
18.10.2017 20:00:00 1,2 -0,4 8 4 23 13 NNW 1006,7 50 0,0
18.10.2017 19:00:00 1,3 0,0 7 4 14 7 N 1006,2 50 0,0
18.10.2017 18:00:00 1,3 0,0 5 3 14 7 N 1005,7 50 0,0
18.10.2017 17:00:00 1,5 0,0 6 3 16 9 N 1005,0 50 0,0
18.10.2017 16:00:00 1,7 0,4 6 3 16 8 N 1004,3 50 0,0
18.10.2017 15:00:00 2,1 0,8 7 4 15 8 N 1003,5 50 0,0
18.10.2017 14:00:00 2,3 1,6 5 3 18 10 NNW 1002,8 50 0,0
18.10.2017 13:00:00 1,9 1,6 8 5 19 11 N 1002,2 50 0,0
18.10.2017 12:00:00 1,7 1,4 8 4 16 9 NNW 1001,5 50 0,0
18.10.2017 11:00:00 1,0 0,7 4 2 10 5 NW 1000,8 29 0,0
18.10.2017 10:00:00 0,0 -0,3 3 2 9 5 NW 1000,3 34 0,0
18.10.2017 09:00:00 -0,3 -0,6 4 2 12 7 NW 999,7 15 0,0
18.10.2017 08:00:00 -0,5 -0,9 4 2 10 5 NNW 999,2 1,6 0,0
18.10.2017 07:00:00 -1,0 -1,4 4 2 9 5 NNW 998,7 2,4 0,1
18.10.2017 06:00:00 -1,4 -1,8 3 2 8 5 NNW 998,4 1,3 0,0
18.10.2017 05:00:00 -1,6 -2,0 4 2 8 5 NNW 998,1 4,2 0,0
18.10.2017 04:00:00 -1,9 -2,3 3 2 6 3 NNW 997,9 1,0 0,0
18.10.2017 03:00:00 -3,1 -3,5 3 1 7 4 NNO 997,8 1,8 0,0
18.10.2017 02:00:00 -3,3 -3,7 2 1 6 3 NW 997,7 0,9 0,0
18.10.2017 01:00:00 -2,5 -2,9 3 1 5 3 NNW 997,8 0,3 0,0
18.10.2017 00:00:00 -2,8 -3,2 0 0 4 2 N 997,8 50 0,0
17.10.2017 23:00:00 -2,2 -2,6 0 0 4 2 N 997,8 35 0,0
17.10.2017 22:00:00 -1,4 -1,8 0 0 3 2 N 997,9 34 0,0
17.10.2017 21:00:00 -0,8 -1,4 0 0 4 2 N 998,0 30 0,0
17.10.2017 20:00:00 -0,7 -1,4 0 0 5 3 N 998,0 36 0,0
17.10.2017 19:00:00 0,1 -1,0 3 1 6 3 OZO 998,5 50 0,0
17.10.2017 18:00:00 2,5 1,0 5 3 8 5 Z 998,9 50 0,0
17.10.2017 17:00:00 3,9 1,8 5 3 8 4 ZZO 999,3 50 0,0
17.10.2017 16:00:00 8,0 2,7 4 2 8 4 ZZW 999,5 50 0,0
17.10.2017 15:00:00 8,7 2,7 4 2 10 6 W 999,8 50 0,0
17.10.2017 14:00:00 9,1 2,6 4 2 9 5 WZW 1000,1 50 0,0
17.10.2017 13:00:00 8,4 2,6 3 2 11 6 W 1000,4 50 0,0
17.10.2017 12:00:00 7,9 2,4 7 4 16 8 W 1000,5 50 0,0
17.10.2017 11:00:00 6,9 2,4 3 2 8 4 W 1000,8 50 0,0
17.10.2017 10:00:00 4,9 1,7 0 0 6 3 N 1000,7 50 0,0
17.10.2017 09:00:00 2,0 1,0 3 2 10 5 ZO 1000,8 50 0,0
17.10.2017 08:00:00 1,1 -0,2 3 2 12 6 NW 1000,4 50 0,0
17.10.2017 07:00:00 3,5 1,1 5 3 22 12 WNW 1000,1 50 0,0
17.10.2017 06:00:00 4,8 1,5 11 6 28 15 W 999,7 50 0,0
17.10.2017 05:00:00 4,8 1,5 9 5 24 13 WNW 999,3 50 0,0
17.10.2017 04:00:00 4,8 1,6 8 4 19 10 W 998,8 50 0,0
17.10.2017 03:00:00 5,5 1,8 11 6 23 13 WNW 998,1 50 0,0
17.10.2017 02:00:00 5,8 1,7 15 8 35 19 W 997,5 50 0,0
17.10.2017 01:00:00 6,0 1,7 16 9 39 21 W 996,7 50 0,0
17.10.2017 00:00:00 6,1 1,4 16 8 47 25 W 995,8 50 0,0
16.10.2017 23:00:00 6,4 1,5 18 10 42 23 W 994,9 50 0,0
16.10.2017 22:00:00 6,6 1,3 21 11 41 22 W 994,3 50 0,0
16.10.2017 21:00:00 6,8 1,3 22 12 44 24 W 993,5 50 0,0
16.10.2017 20:00:00 7,0 1,3 23 12 46 25 W 993,1 50 0,0
16.10.2017 19:00:00 7,3 1,6 21 11 50 27 W 992,8 50 0,0
16.10.2017 18:00:00 7,9 1,9 20 11 46 25 W 992,1 50 0,0
16.10.2017 17:00:00 8,6 3,8 19 10 39 21 W 991,1 50 0,0

tt = temperatuur
td = dauwpunt
ff = windsnelheid
fx = windstoten
dd = windrichting
ppp = luchtdruk
vv = zicht
rr = neerslag

Weerstations in de omgeving